Location: Newark
(41.8083°N, 72.2500°W)
Time: 10:39:08
(UTC+00:00)

Explorer 11/Cluster Stage 4 - Pass Details

Date: 14 December 2021
Orbit: 467 x 1255 km, 28.8° (Epoch: 24 January)

Event Time Altitude Azimuth Distance (km) Brightness Sun altitude
Rises 06:34:23 0° 245° (WSW) 2,886 - -60.4°
Reaches altitude 10° 06:38:22 10° 210° (SSW) 2,169 - -59.8°
Maximum altitude 06:39:51 11° 193° (SSW) 2,160 - -59.5°
Drops below altitude 10° 06:41:25 10° 176° (S) 2,319 - -59.3°
Sets 06:46:15 0° 144° (SE) 3,494 - -58.5°
